TOM8323 LGKO-LGKR

Flight info

Callsign TOM8323
Flight time 1h 11m
Altitude 32000
Route KOPAR UL995 KEA UL52 KOR UL53 PARNA
Aircraft B738/M-SDFGHIJ1RWXYZ/LB1

Departure

Time 2026-05-04 17:50
Airport Kos International Airport "Ippokratis" (LGKO)

Arrival

Time 2026-05-04 19:02
Airport Corfu Ioannis Kapodistrias International Airport (LGKR)
Time Latitude Longitude Altitude Speed Heading
2026-05-04 17:16 36.80182 27.08904 418 ft 0 kts 58°
2026-05-04 17:41 36.80177 27.08895 418 ft 3 kts 58°
2026-05-04 17:41 36.80166 27.08873 407 ft 3 kts 58°
2026-05-04 17:41 36.80156 27.08854 409 ft 2 kts 58°
2026-05-04 17:41 36.80147 27.08835 408 ft 3 kts 73°
2026-05-04 17:42 36.80145 27.08813 410 ft 3 kts 114°
2026-05-04 17:42 36.80156 27.08796 413 ft 3 kts 155°
2026-05-04 17:42 36.80175 27.08788 415 ft 3 kts 164°
2026-05-04 17:42 36.80193 27.08781 408 ft 2 kts 153°
2026-05-04 17:43 36.80198 27.08778 408 ft 1 kts 148°
2026-05-04 17:45 36.80194 27.08781 408 ft 3 kts 148°
2026-05-04 17:45 36.80141 27.08823 412 ft 14 kts 147°
2026-05-04 17:46 36.80058 27.08888 415 ft 14 kts 148°
2026-05-04 17:46 36.79978 27.08951 413 ft 13 kts 148°
2026-05-04 17:46 36.79893 27.08982 416 ft 13 kts 178°
2026-05-04 17:46 36.79801 27.08985 416 ft 15 kts 178°
2026-05-04 17:47 36.79661 27.08991 417 ft 23 kts 175°
2026-05-04 17:47 36.79498 27.09079 409 ft 29 kts 148°
2026-05-04 17:47 36.79320 27.09222 410 ft 32 kts 148°
2026-05-04 17:47 36.79130 27.09370 402 ft 32 kts 148°
2026-05-04 17:48 36.78937 27.09520 396 ft 32 kts 148°
2026-05-04 17:48 36.78750 27.09665 392 ft 31 kts 148°
2026-05-04 17:48 36.78640 27.09752 391 ft 14 kts 148°
2026-05-04 17:48 36.78577 27.09764 389 ft 12 kts 175°
2026-05-04 17:49 36.78557 27.09808 387 ft 4 kts 32°
2026-05-04 17:49 36.78584 27.09794 388 ft 4 kts 327°
2026-05-04 17:49 36.78663 27.09732 392 ft 38 kts 328°
2026-05-04 17:49 36.79082 27.09407 399 ft 101 kts 328°
2026-05-04 17:50 36.79813 27.08828 506 ft 140 kts 328°
2026-05-04 17:50 36.80650 27.08157 1097 ft 144 kts 328°
2026-05-04 17:50 36.81286 27.07225 1766 ft 162 kts 292°
2026-05-04 17:50 36.81225 27.05652 2121 ft 206 kts 257°
2026-05-04 17:51 36.80443 27.04056 2676 ft 224 kts 240°
2026-05-04 17:51 36.79836 27.02313 3311 ft 218 kts 274°
2026-05-04 17:51 36.79946 27.00465 4165 ft 213 kts 283°
2026-05-04 17:51 36.80137 26.98596 4909 ft 221 kts 283°
2026-05-04 17:52 36.80331 26.96676 5734 ft 223 kts 283°
2026-05-04 17:52 36.80525 26.94753 6568 ft 225 kts 282°
2026-05-04 17:52 36.80730 26.92749 7049 ft 244 kts 282°
2026-05-04 17:52 36.80961 26.90507 7322 ft 277 kts 282°
2026-05-04 17:53 36.81219 26.87978 7587 ft 309 kts 281°
2026-05-04 17:53 36.81489 26.85255 8308 ft 320 kts 280°
2026-05-04 17:53 36.81756 26.82526 9320 ft 321 kts 281°
2026-05-04 17:53 36.82029 26.79753 10321 ft 324 kts 280°
2026-05-04 17:54 36.82310 26.76927 11039 ft 332 kts 281°
2026-05-04 17:54 36.82595 26.74061 11869 ft 336 kts 281°
2026-05-04 17:54 36.82840 26.71132 12584 ft 344 kts 279°
2026-05-04 17:54 36.83180 26.68142 13236 ft 348 kts 291°
2026-05-04 17:55 36.84097 26.65356 14034 ft 348 kts 298°
2026-05-04 17:55 36.85112 26.62588 14699 ft 352 kts 298°
2026-05-04 17:55 36.86115 26.59789 15454 ft 354 kts 297°
2026-05-04 17:55 36.87103 26.56958 16202 ft 356 kts 297°
2026-05-04 17:56 36.88087 26.54094 16865 ft 361 kts 297°
2026-05-04 17:56 36.89077 26.51199 17499 ft 365 kts 296°
2026-05-04 17:56 36.90075 26.48271 18167 ft 367 kts 296°
2026-05-04 17:56 36.91079 26.45320 18762 ft 370 kts 296°
2026-05-04 17:57 36.92079 26.42377 19283 ft 374 kts 296°
2026-05-04 17:57 36.93102 26.39367 19801 ft 377 kts 296°
2026-05-04 17:57 36.94132 26.36332 20319 ft 381 kts 296°
2026-05-04 17:57 36.95171 26.33266 20835 ft 385 kts 296°
2026-05-04 17:58 36.96222 26.30164 21344 ft 388 kts 296°
2026-05-04 17:58 36.97279 26.27041 21848 ft 391 kts 296°
2026-05-04 17:58 36.98345 26.23889 22292 ft 396 kts 296°
2026-05-04 17:58 36.99433 26.20687 22656 ft 402 kts 296°
2026-05-04 17:59 37.00531 26.17459 23140 ft 405 kts 297°
2026-05-04 17:59 37.01636 26.14204 23638 ft 407 kts 297°
2026-05-04 17:59 37.03852 26.07664 24458 ft 412 kts 297°
2026-05-04 18:00 37.04972 26.04352 24833 ft 415 kts 297°
2026-05-04 18:00 37.06103 26.01004 25188 ft 418 kts 296°
2026-05-04 18:00 37.07240 25.97634 25533 ft 422 kts 296°
2026-05-04 18:00 37.08386 25.94234 25862 ft 425 kts 296°
2026-05-04 18:01 37.09538 25.90810 26151 ft 429 kts 296°
2026-05-04 18:01 37.10700 25.87354 26473 ft 432 kts 296°
2026-05-04 18:01 37.11871 25.83866 26821 ft 435 kts 296°
2026-05-04 18:02 37.14211 25.76881 27473 ft 440 kts 296°
2026-05-04 18:02 37.15398 25.73332 27788 ft 443 kts 296°
2026-05-04 18:02 37.16592 25.69758 28090 ft 445 kts 296°
2026-05-04 18:02 37.17791 25.66163 28394 ft 448 kts 296°
2026-05-04 18:03 37.18995 25.62552 28668 ft 450 kts 295°
2026-05-04 18:03 37.20203 25.58923 28968 ft 452 kts 295°
2026-05-04 18:03 37.21418 25.55267 29257 ft 454 kts 295°
2026-05-04 18:03 37.22641 25.51587 29544 ft 456 kts 295°
2026-05-04 18:04 37.23851 25.47903 29913 ft 456 kts 295°
2026-05-04 18:04 37.25044 25.44216 30339 ft 455 kts 295°
2026-05-04 18:04 37.27387 25.36958 31229 ft 447 kts 295°
2026-05-04 18:05 37.28481 25.33307 31710 ft 444 kts 292°
2026-05-04 18:05 37.29472 25.29645 32094 ft 443 kts 291°
2026-05-04 18:05 37.30436 25.25951 32107 ft 446 kts 291°
2026-05-04 18:06 37.33342 25.14876 32127 ft 441 kts 291°
2026-05-04 18:06 37.35290 25.07574 32129 ft 440 kts 291°
2026-05-04 18:07 37.37234 25.00273 32117 ft 440 kts 291°
2026-05-04 18:07 37.39156 24.93039 32128 ft 439 kts 291°
2026-05-04 18:08 37.41088 24.85746 32129 ft 438 kts 291°
2026-05-04 18:08 37.43010 24.78470 32126 ft 438 kts 291°
2026-05-04 18:09 37.46831 24.63947 32135 ft 438 kts 291°
2026-05-04 18:10 37.48742 24.56650 32136 ft 438 kts 291°
2026-05-04 18:10 37.50650 24.49344 32142 ft 439 kts 291°
2026-05-04 18:11 37.52551 24.42043 32142 ft 439 kts 291°
2026-05-04 18:11 37.54450 24.34730 32137 ft 439 kts 291°
2026-05-04 18:12 37.56357 24.27441 32130 ft 437 kts 292°
2026-05-04 18:12 37.58369 24.20262 32125 ft 436 kts 292°
2026-05-04 18:13 37.60411 24.13070 32129 ft 435 kts 292°
2026-05-04 18:14 37.63429 24.02309 32125 ft 432 kts 292°
2026-05-04 18:14 37.65418 23.95155 32123 ft 430 kts 292°
2026-05-04 18:15 37.69338 23.81007 32128 ft 426 kts 292°
2026-05-04 18:16 37.71283 23.73957 32108 ft 425 kts 293°
2026-05-04 18:16 37.73218 23.66923 32117 ft 422 kts 293°
2026-05-04 18:17 37.76089 23.56458 32122 ft 418 kts 293°
2026-05-04 18:18 37.78912 23.46129 32119 ft 416 kts 293°
2026-05-04 18:18 37.80790 23.39215 32127 ft 414 kts 294°
2026-05-04 18:19 37.83574 23.28878 32133 ft 413 kts 294°
2026-05-04 18:19 37.85420 23.22005 32130 ft 412 kts 294°
2026-05-04 18:20 37.87251 23.15174 32131 ft 412 kts 294°
2026-05-04 18:20 37.89086 23.08308 32118 ft 411 kts 294°
2026-05-04 18:21 37.90916 23.01446 32130 ft 411 kts 294°
2026-05-04 18:21 37.92811 22.94635 32131 ft 407 kts 298°
2026-05-04 18:22 37.95712 22.88570 32149 ft 401 kts 309°
2026-05-04 18:22 37.98950 22.82795 32138 ft 402 kts 308°
2026-05-04 18:23 38.02143 22.77014 32115 ft 403 kts 308°
2026-05-04 18:23 38.05354 22.71164 32137 ft 404 kts 308°
2026-05-04 18:24 38.08564 22.65313 32142 ft 404 kts 308°
2026-05-04 18:24 38.11787 22.59430 32142 ft 405 kts 308°
2026-05-04 18:25 38.15007 22.53541 32139 ft 406 kts 308°
2026-05-04 18:25 38.18205 22.47681 32140 ft 406 kts 308°
2026-05-04 18:26 38.21418 22.41781 32135 ft 405 kts 308°
2026-05-04 18:26 38.24624 22.35885 32143 ft 405 kts 308°
2026-05-04 18:27 38.27823 22.29990 32147 ft 404 kts 308°
2026-05-04 18:27 38.31024 22.24085 32160 ft 405 kts 308°
2026-05-04 18:28 38.34218 22.18183 32159 ft 405 kts 308°
2026-05-04 18:28 38.37405 22.12287 32133 ft 407 kts 308°
2026-05-04 18:29 38.40623 22.06320 32145 ft 407 kts 308°
2026-05-04 18:29 38.43806 22.00407 32150 ft 406 kts 308°
2026-05-04 18:30 38.48590 21.91501 32158 ft 405 kts 307°
2026-05-04 18:31 38.51768 21.85571 32154 ft 403 kts 307°
2026-05-04 18:31 38.54907 21.79698 32142 ft 403 kts 307°
2026-05-04 18:32 38.58070 21.73760 32149 ft 404 kts 307°
2026-05-04 18:32 38.61229 21.67817 32161 ft 405 kts 307°
2026-05-04 18:33 38.64396 21.61849 32160 ft 405 kts 307°
2026-05-04 18:33 38.67561 21.55875 32162 ft 405 kts 307°
2026-05-04 18:34 38.70707 21.49928 32151 ft 406 kts 307°
2026-05-04 18:34 38.73869 21.43933 32158 ft 406 kts 307°
2026-05-04 18:35 38.77028 21.37926 32155 ft 405 kts 307°
2026-05-04 18:35 38.80173 21.31935 32159 ft 405 kts 307°
2026-05-04 18:36 38.83309 21.25950 32156 ft 404 kts 307°
2026-05-04 18:36 38.85917 21.20965 32152 ft 404 kts 307°
2026-05-04 18:37 38.89558 21.13993 32145 ft 404 kts 307°
2026-05-04 18:37 38.92681 21.07999 32134 ft 403 kts 307°
2026-05-04 18:38 38.95267 21.03029 32139 ft 402 kts 307°
2026-05-04 18:38 38.98368 20.97059 32150 ft 402 kts 307°
2026-05-04 18:39 39.01470 20.91079 32137 ft 403 kts 307°
2026-05-04 18:39 39.04576 20.85083 32131 ft 402 kts 307°
2026-05-04 18:40 39.07685 20.79067 32118 ft 405 kts 307°
2026-05-04 18:40 39.10813 20.73006 32133 ft 406 kts 307°
2026-05-04 18:40 39.12355 20.70007 31854 ft 397 kts 307°
2026-05-04 18:41 39.13874 20.67053 31146 ft 397 kts 307°
2026-05-04 18:41 39.15391 20.64104 30283 ft 402 kts 307°
2026-05-04 18:41 39.16944 20.61086 29226 ft 407 kts 307°
2026-05-04 18:41 39.18513 20.58030 28385 ft 408 kts 306°
2026-05-04 18:42 39.20069 20.54992 27734 ft 404 kts 306°
2026-05-04 18:42 39.21566 20.52066 27168 ft 399 kts 306°
2026-05-04 18:42 39.23070 20.49126 26562 ft 395 kts 306°
2026-05-04 18:42 39.24578 20.46178 25892 ft 393 kts 306°
2026-05-04 18:43 39.26082 20.43234 25196 ft 392 kts 306°
2026-05-04 18:43 39.27589 20.40301 24557 ft 390 kts 306°
2026-05-04 18:43 39.29087 20.37398 23987 ft 388 kts 306°
2026-05-04 18:43 39.30575 20.34507 23354 ft 385 kts 306°
2026-05-04 18:44 39.32044 20.31628 22741 ft 382 kts 306°
2026-05-04 18:44 39.33005 20.29736 22364 ft 379 kts 306°
2026-05-04 18:44 39.34928 20.25947 21596 ft 374 kts 306°
2026-05-04 18:44 39.36333 20.23178 21003 ft 371 kts 306°
2026-05-04 18:45 39.37751 20.20383 20405 ft 369 kts 307°
2026-05-04 18:45 39.39155 20.17615 19834 ft 366 kts 307°
2026-05-04 18:45 39.40549 20.14866 19279 ft 364 kts 307°
2026-05-04 18:45 39.41932 20.12133 18689 ft 362 kts 306°
2026-05-04 18:46 39.43249 20.09341 17995 ft 366 kts 298°
2026-05-04 18:46 39.43896 20.06171 17403 ft 372 kts 281°
2026-05-04 18:46 39.43865 20.02803 16872 ft 376 kts 267°
2026-05-04 18:46 39.43440 19.99464 16334 ft 375 kts 265°
2026-05-04 18:47 39.42953 19.96147 15768 ft 374 kts 264°
2026-05-04 18:47 39.42459 19.92853 15211 ft 372 kts 264°
2026-05-04 18:47 39.42006 19.89616 14687 ft 367 kts 269°
2026-05-04 18:47 39.42184 19.86449 13850 ft 349 kts 292°
2026-05-04 18:48 39.43363 19.83744 12676 ft 344 kts 313°
2026-05-04 18:48 39.45089 19.81620 11572 ft 343 kts 326°
2026-05-04 18:48 39.47161 19.80100 10608 ft 341 kts 335°
2026-05-04 18:48 39.49262 19.78841 10325 ft 321 kts 336°
2026-05-04 18:49 39.51233 19.77684 10182 ft 301 kts 336°
2026-05-04 18:49 39.53077 19.76594 10063 ft 282 kts 336°
2026-05-04 18:49 39.54817 19.75556 9738 ft 272 kts 336°
2026-05-04 18:49 39.56532 19.74526 9166 ft 272 kts 336°
2026-05-04 18:50 39.58246 19.73490 8592 ft 272 kts 336°
2026-05-04 18:50 39.59946 19.72458 8063 ft 272 kts 335°
2026-05-04 18:50 39.61656 19.71418 7544 ft 271 kts 335°
2026-05-04 18:50 39.63371 19.70373 7088 ft 274 kts 335°
2026-05-04 18:51 39.65091 19.69324 6801 ft 272 kts 335°
2026-05-04 18:51 39.66803 19.68278 6463 ft 272 kts 335°
2026-05-04 18:51 39.68519 19.67251 6137 ft 271 kts 339°
2026-05-04 18:51 39.70370 19.66942 5779 ft 271 kts
2026-05-04 18:52 39.72132 19.67722 5553 ft 266 kts 27°
2026-05-04 18:52 39.73712 19.68861 5496 ft 256 kts 29°
2026-05-04 18:52 39.75229 19.69976 5414 ft 246 kts 29°
2026-05-04 18:52 39.76695 19.71046 5344 ft 237 kts 28°
2026-05-04 18:53 39.78112 19.72070 5271 ft 227 kts 28°
2026-05-04 18:53 39.79459 19.73038 5199 ft 214 kts 28°
2026-05-04 18:53 39.80727 19.73948 5091 ft 202 kts 28°
2026-05-04 18:53 39.81920 19.74802 4987 ft 190 kts 28°
2026-05-04 18:54 39.83034 19.75600 4875 ft 182 kts 28°
2026-05-04 18:54 39.84148 19.76398 4779 ft 184 kts 28°
2026-05-04 18:54 39.85218 19.77326 4657 ft 189 kts 50°
2026-05-04 18:54 39.85644 19.78915 4554 ft 191 kts 96°
2026-05-04 18:55 39.85157 19.80501 4515 ft 190 kts 119°
2026-05-04 18:55 39.83836 19.83536 4156 ft 192 kts 118°
2026-05-04 18:55 39.83192 19.85031 3942 ft 186 kts 118°
2026-05-04 18:56 39.82570 19.86480 3741 ft 180 kts 118°
2026-05-04 18:56 39.81968 19.87886 3553 ft 178 kts 119°
2026-05-04 18:56 39.81367 19.89290 3394 ft 181 kts 119°
2026-05-04 18:56 39.80646 19.90646 3221 ft 184 kts 143°
2026-05-04 18:57 39.79471 19.91104 3241 ft 178 kts 177°
2026-05-04 18:57 39.78218 19.91250 3209 ft 182 kts 175°
2026-05-04 18:57 39.76949 19.91412 3203 ft 183 kts 175°
2026-05-04 18:57 39.75688 19.91573 3202 ft 181 kts 175°
2026-05-04 18:58 39.74466 19.91660 3061 ft 172 kts 183°
2026-05-04 18:58 39.73309 19.91566 2820 ft 161 kts 185°
2026-05-04 18:58 39.72241 19.91462 2592 ft 150 kts 185°
2026-05-04 18:58 39.71213 19.91351 2322 ft 147 kts 191°
2026-05-04 18:59 39.70260 19.90958 2073 ft 145 kts 200°
2026-05-04 18:59 39.69316 19.90467 1837 ft 146 kts 204°
2026-05-04 18:59 39.68373 19.89975 1587 ft 147 kts 196°
2026-05-04 18:59 39.67379 19.89720 1374 ft 145 kts 191°
2026-05-04 19:00 39.66382 19.89625 1172 ft 144 kts 175°
2026-05-04 19:00 39.65400 19.89871 989 ft 144 kts 167°
2026-05-04 19:00 39.64404 19.90141 813 ft 148 kts 169°
2026-05-04 19:00 39.63401 19.90389 598 ft 145 kts 169°
2026-05-04 19:01 39.62432 19.90634 373 ft 142 kts 168°
2026-05-04 19:01 39.61468 19.90885 170 ft 141 kts 168°
2026-05-04 19:01 39.60504 19.91134 19 ft 138 kts 168°
2026-05-04 19:01 39.59764 19.91325 21 ft 77 kts 168°
2026-05-04 19:02 39.59444 19.91409 16 ft 17 kts 168°
2026-05-04 19:02 39.59355 19.91432 16 ft 13 kts 169°
2026-05-04 19:02 39.59267 19.91454 19 ft 12 kts 169°
2026-05-04 19:02 39.59193 19.91454 16 ft 9 kts 204°
2026-05-04 19:03 39.59166 19.91475 17 ft 6 kts 50°
2026-05-04 19:03 39.59211 19.91468 17 ft 8 kts 345°
2026-05-04 19:03 39.59286 19.91448 17 ft 15 kts 348°
2026-05-04 19:03 39.59404 19.91417 16 ft 19 kts 348°
2026-05-04 19:04 39.59530 19.91385 19 ft 18 kts 348°
2026-05-04 19:04 39.59650 19.91353 18 ft 17 kts 348°
2026-05-04 19:04 39.59768 19.91323 21 ft 17 kts 348°
2026-05-04 19:04 39.59883 19.91293 21 ft 18 kts 348°
2026-05-04 19:05 39.60020 19.91257 20 ft 22 kts 348°
2026-05-04 19:05 39.60181 19.91216 22 ft 25 kts 348°
2026-05-04 19:05 39.60346 19.91173 20 ft 23 kts 348°
2026-05-04 19:05 39.60500 19.91134 18 ft 23 kts 349°
2026-05-04 19:06 39.60652 19.91096 18 ft 22 kts 349°
2026-05-04 19:06 39.60799 19.91054 19 ft 21 kts 347°
2026-05-04 19:06 39.60942 19.91016 18 ft 21 kts 353°
2026-05-04 19:06 39.61031 19.91025 18 ft 9 kts 55°
2026-05-04 19:07 39.61061 19.91098 18 ft 7 kts 76°
2026-05-04 19:07 39.61034 19.91129 18 ft 6 kts 164°
2026-05-04 19:07 39.60996 19.91139 19 ft 5 kts 168°
2026-05-04 19:07 39.60956 19.91150 18 ft 6 kts 168°
2026-05-04 19:08 39.60914 19.91162 18 ft 6 kts 168°
2026-05-04 19:08 39.60873 19.91174 19 ft 6 kts 158°
2026-05-04 19:08 39.60867 19.91224 17 ft 6 kts 79°
2026-05-04 19:08 39.60875 19.91277 17 ft 6 kts 79°
2026-05-04 19:09 39.60878 19.91300 17 ft 0 kts 79°